Location: Camp at the Woods
(43.2055°N, 93.0905°W)
Time: 01:06:37
(UTC+00:00)

Cosmos 2227 Rocket - Pass Details

Date: 21 May 2025
Orbit: 837 x 844 km, 71.0° (Epoch: 12 June)

Event Time Altitude Azimuth Distance (km) Brightness Sun altitude
Exits shadow 09:04:28 22° 227° (SW) 1,744 3.2 -14.8°
Maximum altitude 09:08:01 57° 298° (WNW) 981 2.4 -14.4°
Drops below altitude 10° 09:13:35 10° 18° (NNE) 2,463 5.7 -13.7°
Sets 09:16:05 0° 22° (NNE) 3,403 6.7 -13.4°
